AOJ74J EDDF-LTFM

Flight info

Callsign AOJ74J
Flight time 2h 15m
Altitude 37000
Route CINDY6F CINDY Z74 HAREM DCT ASLEP DCT TAKUT L603 BESNI L605 MIQ DCT ALUTU DCT BIBAG DCT ESEGA DCT VELOM DCT GOTAR DCT NALOX DCT BABIT DCT ESIRI DCT ETIDA T390 RILEX
Aircraft C750/M-SBDE3FGHRWXY/S

Departure

Time 2026-04-14 05:20
Airport Frankfurt Main Airport (EDDF)

Arrival

Time 2026-04-14 07:36
Airport İstanbul Airport (LTFM)
Time Latitude Longitude Altitude Speed Heading
2026-04-14 05:07 50.02248 8.53080 328 ft 0 kts 339°
2026-04-14 05:14 50.02237 8.53087 328 ft 4 kts 334°
2026-04-14 05:14 50.02216 8.53109 330 ft 4 kts 301°
2026-04-14 05:15 50.02212 8.53139 331 ft 1 kts 247°
2026-04-14 05:15 50.02214 8.53146 331 ft 0 kts 246°
2026-04-14 05:17 50.02208 8.53124 330 ft 3 kts 247°
2026-04-14 05:18 50.02183 8.53086 331 ft 8 kts 201°
2026-04-14 05:18 50.02150 8.52990 330 ft 13 kts 265°
2026-04-14 05:18 50.02151 8.52845 332 ft 12 kts 302°
2026-04-14 05:18 50.02213 8.52828 332 ft 11 kts
2026-04-14 05:19 50.02286 8.52830 332 ft 7 kts 354°
2026-04-14 05:19 50.02320 8.52794 332 ft 6 kts 291°
2026-04-14 05:19 50.02312 8.52724 332 ft 10 kts 252°
2026-04-14 05:19 50.02275 8.52614 331 ft 11 kts 212°
2026-04-14 05:20 50.02080 8.52607 328 ft 68 kts 180°
2026-04-14 05:20 50.01291 8.52616 331 ft 147 kts 180°
2026-04-14 05:20 50.00186 8.52650 637 ft 166 kts 180°
2026-04-14 05:20 49.99035 8.52705 1373 ft 161 kts 179°
2026-04-14 05:21 49.97924 8.52738 2026 ft 165 kts 180°
2026-04-14 05:21 49.96764 8.53290 2222 ft 194 kts 144°
2026-04-14 05:21 49.95805 8.54972 2316 ft 223 kts 118°
2026-04-14 05:21 49.95023 8.57141 2858 ft 231 kts 115°
2026-04-14 05:22 49.94273 8.59327 3661 ft 229 kts 112°
2026-04-14 05:22 49.93957 8.61846 3873 ft 252 kts 91°
2026-04-14 05:22 49.93911 8.64613 4533 ft 262 kts 90°
2026-04-14 05:22 49.93806 8.67442 5426 ft 267 kts 96°
2026-04-14 05:23 49.93034 8.70099 6133 ft 277 kts 129°
2026-04-14 05:23 49.91573 8.72043 7051 ft 278 kts 144°
2026-04-14 05:23 49.89968 8.73741 8005 ft 280 kts 147°
2026-04-14 05:23 49.88434 8.75631 8899 ft 288 kts 132°
2026-04-14 05:24 49.87401 8.78301 9831 ft 290 kts 120°
2026-04-14 05:24 49.86436 8.81088 10449 ft 301 kts 121°
2026-04-14 05:24 49.85361 8.84033 10579 ft 327 kts 121°
2026-04-14 05:24 49.84187 8.87216 10650 ft 352 kts 121°
2026-04-14 05:25 49.82985 8.90547 11346 ft 354 kts 121°
2026-04-14 05:25 49.81780 8.93894 12027 ft 357 kts 121°
2026-04-14 05:25 49.80552 8.97260 12703 ft 361 kts 121°
2026-04-14 05:25 49.79310 9.00656 13402 ft 364 kts 121°
2026-04-14 05:26 49.78061 9.04082 14043 ft 368 kts 121°
2026-04-14 05:26 49.76802 9.07545 14638 ft 369 kts 121°
2026-04-14 05:26 49.75845 9.11244 15135 ft 375 kts 106°
2026-04-14 05:26 49.75250 9.15182 15750 ft 376 kts 104°
2026-04-14 05:27 49.74351 9.18971 16201 ft 378 kts 122°
2026-04-14 05:27 49.72774 9.22190 16872 ft 375 kts 132°
2026-04-14 05:27 49.71044 9.25229 17511 ft 378 kts 134°
2026-04-14 05:27 49.69288 9.28272 18136 ft 381 kts 133°
2026-04-14 05:28 49.67538 9.31370 18727 ft 384 kts 133°
2026-04-14 05:28 49.65781 9.34504 19266 ft 388 kts 133°
2026-04-14 05:28 49.63991 9.37657 19810 ft 392 kts 133°
2026-04-14 05:28 49.62269 9.40955 20271 ft 400 kts 124°
2026-04-14 05:29 49.61092 9.44872 20834 ft 405 kts 111°
2026-04-14 05:29 49.60200 9.49014 21393 ft 409 kts 109°
2026-04-14 05:29 49.59321 9.53205 21943 ft 413 kts 109°
2026-04-14 05:29 49.58417 9.57427 22440 ft 417 kts 110°
2026-04-14 05:30 49.57490 9.61680 22955 ft 421 kts 110°
2026-04-14 05:30 49.56559 9.65979 23467 ft 425 kts 109°
2026-04-14 05:30 49.55640 9.70258 23928 ft 428 kts 109°
2026-04-14 05:30 49.54698 9.74616 24425 ft 430 kts 109°
2026-04-14 05:31 49.53747 9.78986 24960 ft 431 kts 109°
2026-04-14 05:31 49.52565 9.83232 25355 ft 433 kts 120°
2026-04-14 05:31 49.50855 9.87039 25885 ft 432 kts 130°
2026-04-14 05:31 49.48951 9.90631 26364 ft 434 kts 130°
2026-04-14 05:32 49.47039 9.94242 26860 ft 436 kts 130°
2026-04-14 05:32 49.45124 9.97887 27348 ft 439 kts 130°
2026-04-14 05:32 49.43199 10.01542 27849 ft 441 kts 130°
2026-04-14 05:32 49.41254 10.05208 28333 ft 443 kts 130°
2026-04-14 05:33 49.39302 10.08882 28839 ft 445 kts 130°
2026-04-14 05:33 49.37339 10.12583 29311 ft 448 kts 130°
2026-04-14 05:33 49.35368 10.16299 29803 ft 450 kts 130°
2026-04-14 05:34 49.31382 10.23775 30623 ft 455 kts 130°
2026-04-14 05:34 49.29370 10.27544 30984 ft 459 kts 130°
2026-04-14 05:34 49.27350 10.31327 31483 ft 458 kts 130°
2026-04-14 05:34 49.25338 10.35085 32079 ft 456 kts 130°
2026-04-14 05:35 49.23294 10.38778 32600 ft 454 kts 134°
2026-04-14 05:35 49.21032 10.42137 33143 ft 452 kts 137°
2026-04-14 05:35 49.18775 10.45475 33745 ft 451 kts 137°
2026-04-14 05:35 49.16545 10.48830 34278 ft 449 kts 137°
2026-04-14 05:36 49.14310 10.52168 34658 ft 450 kts 137°
2026-04-14 05:36 49.12052 10.55496 35025 ft 452 kts 137°
2026-04-14 05:36 49.09790 10.58834 35412 ft 453 kts 137°
2026-04-14 05:36 49.07528 10.62194 35804 ft 454 kts 137°
2026-04-14 05:37 49.05264 10.65550 36250 ft 454 kts 137°
2026-04-14 05:37 49.02994 10.68895 36708 ft 454 kts 137°
2026-04-14 05:37 49.00719 10.72231 37108 ft 455 kts 137°
2026-04-14 05:37 48.98437 10.75581 37527 ft 456 kts 137°
2026-04-14 05:38 48.96152 10.78939 37934 ft 457 kts 137°
2026-04-14 05:38 48.93861 10.82299 38357 ft 458 kts 137°
2026-04-14 05:38 48.91560 10.85662 38768 ft 459 kts 137°
2026-04-14 05:38 48.89257 10.89033 39109 ft 460 kts 137°
2026-04-14 05:39 48.86957 10.92405 39464 ft 460 kts 137°
2026-04-14 05:39 48.84654 10.95773 39830 ft 460 kts 137°
2026-04-14 05:39 48.82343 10.99142 40191 ft 460 kts 137°
2026-04-14 05:39 48.80039 11.02497 40623 ft 459 kts 137°
2026-04-14 05:40 48.77737 11.05849 40993 ft 459 kts 137°
2026-04-14 05:40 48.75430 11.09201 41332 ft 460 kts 137°
2026-04-14 05:40 48.73112 11.12548 41678 ft 461 kts 137°
2026-04-14 05:40 48.70791 11.15896 42040 ft 461 kts 137°
2026-04-14 05:41 48.68469 11.19248 42392 ft 461 kts 137°
2026-04-14 05:41 48.66215 11.22702 42704 ft 463 kts 131°
2026-04-14 05:41 48.64322 11.26641 43038 ft 465 kts 122°
2026-04-14 05:41 48.62880 11.31018 43385 ft 466 kts 112°
2026-04-14 05:42 48.61861 11.35670 43722 ft 467 kts 107°
2026-04-14 05:42 48.61046 11.40424 44066 ft 467 kts 105°
2026-04-14 05:42 48.60235 11.45174 44363 ft 468 kts 107°
2026-04-14 05:42 48.59213 11.49847 44679 ft 468 kts 111°
2026-04-14 05:43 48.58118 11.54397 44965 ft 466 kts 110°
2026-04-14 05:43 48.57111 11.59071 45046 ft 472 kts 107°
2026-04-14 05:43 48.55716 11.68900 45067 ft 485 kts 102°
2026-04-14 05:44 48.54229 11.78960 45060 ft 497 kts 104°
2026-04-14 05:44 48.52721 11.89261 45048 ft 501 kts 103°
2026-04-14 05:45 48.51223 11.99451 45056 ft 501 kts 104°
2026-04-14 05:45 48.49690 12.09698 45050 ft 501 kts 103°
2026-04-14 05:46 48.48160 12.19950 45033 ft 501 kts 104°
2026-04-14 05:46 48.46602 12.30167 45033 ft 500 kts 104°
2026-04-14 05:47 48.45054 12.40389 45026 ft 500 kts 104°
2026-04-14 05:47 48.43482 12.50602 45026 ft 500 kts 104°
2026-04-14 05:48 48.41910 12.60815 45026 ft 501 kts 104°
2026-04-14 05:48 48.40317 12.71061 45027 ft 502 kts 104°
2026-04-14 05:49 48.38336 12.81117 45024 ft 501 kts 110°
2026-04-14 05:49 48.35968 12.90982 45033 ft 502 kts 110°
2026-04-14 05:50 48.33711 13.00896 45020 ft 501 kts 110°
2026-04-14 05:50 48.31385 13.10692 45018 ft 501 kts 110°
2026-04-14 05:51 48.29084 13.20565 45016 ft 501 kts 110°
2026-04-14 05:51 48.27127 13.28821 45017 ft 501 kts 110°
2026-04-14 05:52 48.24794 13.38675 45017 ft 501 kts 110°
2026-04-14 05:52 48.22422 13.48503 45005 ft 501 kts 114°
2026-04-14 05:53 48.18962 13.57522 45015 ft 499 kts 126°
2026-04-14 05:53 48.15097 13.66165 45031 ft 500 kts 123°
2026-04-14 05:54 48.11418 13.74998 45026 ft 499 kts 124°
2026-04-14 05:54 48.07589 13.83681 45022 ft 500 kts 123°
2026-04-14 05:55 48.03849 13.92446 45021 ft 500 kts 123°
2026-04-14 05:55 48.00039 14.01143 45022 ft 500 kts 124°
2026-04-14 05:56 47.96263 14.09858 45023 ft 500 kts 124°
2026-04-14 05:56 47.92450 14.18558 45011 ft 501 kts 124°
2026-04-14 05:57 47.88641 14.27258 45014 ft 501 kts 124°
2026-04-14 05:57 47.84824 14.35932 45019 ft 501 kts 124°
2026-04-14 05:58 47.81000 14.44600 45019 ft 501 kts 124°
2026-04-14 05:58 47.77169 14.53256 45012 ft 501 kts 124°
2026-04-14 05:59 47.73332 14.61897 45013 ft 501 kts 124°
2026-04-14 05:59 47.69487 14.70529 45019 ft 503 kts 124°
2026-04-14 06:00 47.65640 14.79139 45023 ft 503 kts 124°
2026-04-14 06:00 47.61764 14.87787 45024 ft 504 kts 124°
2026-04-14 06:01 47.57880 14.96423 45032 ft 503 kts 124°
2026-04-14 06:01 47.53988 15.05053 45033 ft 504 kts 124°
2026-04-14 06:02 47.50087 15.13673 45036 ft 504 kts 124°
2026-04-14 06:02 47.46137 15.22371 45039 ft 516 kts 124°
2026-04-14 06:03 47.42099 15.31243 45043 ft 523 kts 124°
2026-04-14 06:04 47.35997 15.44586 45034 ft 523 kts 125°
2026-04-14 06:04 47.31923 15.53464 45029 ft 522 kts 125°
2026-04-14 06:05 47.27848 15.62309 45025 ft 521 kts 125°
2026-04-14 06:05 47.23759 15.71161 45028 ft 526 kts 125°
2026-04-14 06:06 47.19606 15.80121 45034 ft 532 kts 125°
2026-04-14 06:06 47.15428 15.89106 45030 ft 531 kts 126°
2026-04-14 06:07 47.11250 15.98058 45032 ft 532 kts 125°
2026-04-14 06:07 47.07068 16.06995 45032 ft 529 kts 126°
2026-04-14 06:08 47.02892 16.15886 45032 ft 530 kts 126°
2026-04-14 06:08 46.99191 16.25146 45121 ft 533 kts 114°
2026-04-14 06:08 46.97992 16.30243 45689 ft 520 kts 107°
2026-04-14 06:09 46.97068 16.35283 47123 ft 491 kts 106°
2026-04-14 06:09 46.96168 16.39907 48208 ft 470 kts 108°
2026-04-14 06:09 46.95135 16.44427 48438 ft 468 kts 110°
2026-04-14 06:09 46.94084 16.48943 48591 ft 469 kts 109°
2026-04-14 06:10 46.93127 16.53505 48785 ft 469 kts 108°
2026-04-14 06:10 46.92196 16.58073 48954 ft 468 kts 108°
2026-04-14 06:10 46.91208 16.62619 49019 ft 471 kts 109°
2026-04-14 06:11 46.89178 16.71803 49027 ft 478 kts 108°
2026-04-14 06:11 46.87107 16.81119 49019 ft 485 kts 114°
2026-04-14 06:12 46.83764 16.89710 49042 ft 489 kts 126°
2026-04-14 06:12 46.79999 16.98068 49044 ft 495 kts 122°
2026-04-14 06:13 46.76425 17.06655 49029 ft 494 kts 124°
2026-04-14 06:13 46.72692 17.15076 49031 ft 495 kts 123°
2026-04-14 06:14 46.69057 17.23587 49030 ft 495 kts 123°
2026-04-14 06:14 46.65348 17.32023 49023 ft 495 kts 123°
2026-04-14 06:15 46.61666 17.40508 49023 ft 495 kts 123°
2026-04-14 06:15 46.57983 17.48887 49026 ft 495 kts 123°
2026-04-14 06:16 46.54260 17.57381 49010 ft 495 kts 123°
2026-04-14 06:16 46.50569 17.65749 49007 ft 496 kts 123°
2026-04-14 06:17 46.46844 17.74180 49004 ft 496 kts 123°
2026-04-14 06:17 46.43114 17.82596 49013 ft 496 kts 124°
2026-04-14 06:18 46.39379 17.90993 49014 ft 496 kts 124°
2026-04-14 06:18 46.35632 17.99398 48998 ft 497 kts 123°
2026-04-14 06:19 46.31880 18.07786 49007 ft 497 kts 124°
2026-04-14 06:19 46.28118 18.16169 49009 ft 496 kts 124°
2026-04-14 06:20 46.24356 18.24529 49008 ft 496 kts 124°
2026-04-14 06:20 46.20573 18.32905 49017 ft 499 kts 124°
2026-04-14 06:21 46.16782 18.41286 49021 ft 499 kts 124°
2026-04-14 06:21 46.12968 18.49677 49027 ft 500 kts 124°
2026-04-14 06:22 46.09167 18.58030 49015 ft 498 kts 124°
2026-04-14 06:22 46.05343 18.66396 49013 ft 502 kts 124°
2026-04-14 06:23 46.01520 18.74744 49017 ft 498 kts 124°
2026-04-14 06:23 45.97691 18.83076 49013 ft 501 kts 124°
2026-04-14 06:24 45.93840 18.91428 49009 ft 503 kts 125°
2026-04-14 06:24 45.89413 18.99159 49033 ft 507 kts 134°
2026-04-14 06:25 45.84695 19.06772 49026 ft 514 kts 131°
2026-04-14 06:25 45.80011 19.14573 49032 ft 519 kts 133°
2026-04-14 06:26 45.75201 19.22354 49039 ft 524 kts 133°
2026-04-14 06:26 45.70393 19.30256 49032 ft 528 kts 133°
2026-04-14 06:27 45.65519 19.38145 49047 ft 531 kts 132°
2026-04-14 06:27 45.60634 19.46088 49046 ft 534 kts 133°
2026-04-14 06:28 45.55706 19.54047 49053 ft 535 kts 132°
2026-04-14 06:28 45.50788 19.61986 49046 ft 534 kts 133°
2026-04-14 06:29 45.45860 19.69903 49047 ft 535 kts 133°
2026-04-14 06:29 45.40926 19.77815 49059 ft 534 kts 132°
2026-04-14 06:30 45.35985 19.85716 49050 ft 535 kts 133°
2026-04-14 06:30 45.31031 19.93612 49060 ft 536 kts 133°
2026-04-14 06:31 45.26073 20.01495 49070 ft 534 kts 133°
2026-04-14 06:31 45.21121 20.09343 49062 ft 533 kts 133°
2026-04-14 06:32 45.16154 20.17191 49073 ft 536 kts 133°
2026-04-14 06:32 45.11186 20.25027 49079 ft 534 kts 133°
2026-04-14 06:33 45.06211 20.32844 49075 ft 534 kts 134°
2026-04-14 06:33 45.01221 20.40662 49079 ft 535 kts 133°
2026-04-14 06:34 44.93749 20.52334 49075 ft 534 kts 133°
2026-04-14 06:34 44.88763 20.60093 49057 ft 535 kts 134°
2026-04-14 06:35 44.83772 20.67842 49072 ft 532 kts 133°
2026-04-14 06:35 44.78793 20.75545 49067 ft 531 kts 134°
2026-04-14 06:36 44.73812 20.83234 49079 ft 533 kts 134°
2026-04-14 06:36 44.68823 20.90914 49084 ft 531 kts 134°
2026-04-14 06:37 44.64682 20.97269 49082 ft 529 kts 133°
2026-04-14 06:37 44.59708 21.04888 49078 ft 530 kts 134°
2026-04-14 06:38 44.54737 21.12482 49090 ft 527 kts 134°
2026-04-14 06:38 44.49772 21.20045 49093 ft 527 kts 134°
2026-04-14 06:39 44.44801 21.27594 49086 ft 527 kts 134°
2026-04-14 06:39 44.39833 21.35121 49101 ft 526 kts 134°
2026-04-14 06:40 44.34862 21.42634 49113 ft 526 kts 134°
2026-04-14 06:40 44.29877 21.50158 49101 ft 529 kts 134°
2026-04-14 06:41 44.24923 21.57711 49136 ft 527 kts 135°
2026-04-14 06:41 44.19942 21.65225 49149 ft 527 kts 135°
2026-04-14 06:42 44.14991 21.72707 49182 ft 529 kts 134°
2026-04-14 06:42 44.09991 21.80227 49174 ft 529 kts 134°
2026-04-14 06:43 44.04980 21.87749 49188 ft 530 kts 135°
2026-04-14 06:43 43.99954 21.95271 49198 ft 530 kts 134°
2026-04-14 06:44 43.94925 22.02779 49197 ft 533 kts 134°
2026-04-14 06:44 43.89852 22.10332 49199 ft 537 kts 134°
2026-04-14 06:45 43.84750 22.17911 49209 ft 537 kts 134°
2026-04-14 06:45 43.79644 22.25470 49208 ft 538 kts 134°
2026-04-14 06:46 43.71966 22.36803 49192 ft 538 kts 134°
2026-04-14 06:47 43.67328 22.44914 49172 ft 540 kts 121°
2026-04-14 06:47 43.64018 22.54218 49201 ft 540 kts 115°
2026-04-14 06:48 43.60659 22.63506 49197 ft 541 kts 119°
2026-04-14 06:48 43.57192 22.72719 49196 ft 541 kts 116°
2026-04-14 06:49 43.53833 22.82003 49196 ft 542 kts 118°
2026-04-14 06:49 43.50352 22.91223 49205 ft 542 kts 117°
2026-04-14 06:50 43.46953 23.00487 49200 ft 542 kts 118°
2026-04-14 06:50 43.43479 23.09696 49205 ft 542 kts 117°
2026-04-14 06:51 43.40046 23.18928 49206 ft 542 kts 118°
2026-04-14 06:51 43.36567 23.28142 49204 ft 543 kts 118°
2026-04-14 06:52 43.33128 23.37292 49199 ft 542 kts 118°
2026-04-14 06:52 43.29644 23.46485 49190 ft 543 kts 118°
2026-04-14 06:53 43.26160 23.55677 49193 ft 543 kts 118°
2026-04-14 06:53 43.22665 23.64849 49189 ft 543 kts 118°
2026-04-14 06:54 43.19170 23.74006 49189 ft 542 kts 118°
2026-04-14 06:54 43.15665 23.83149 49189 ft 542 kts 118°
2026-04-14 06:55 43.12152 23.92289 49188 ft 542 kts 118°
2026-04-14 06:55 43.08624 24.01435 49190 ft 544 kts 118°
2026-04-14 06:56 43.05088 24.10579 49191 ft 544 kts 118°
2026-04-14 06:56 43.03331 24.15106 49182 ft 530 kts 118°
2026-04-14 06:56 43.01633 24.19474 49179 ft 511 kts 118°
2026-04-14 06:56 42.99993 24.23689 49169 ft 495 kts 118°
2026-04-14 06:57 42.98385 24.27819 49177 ft 492 kts 118°
2026-04-14 06:57 42.95135 24.36136 49199 ft 500 kts 119°
2026-04-14 06:58 42.91853 24.44524 49213 ft 507 kts 119°
2026-04-14 06:58 42.88501 24.53062 49213 ft 507 kts 119°
2026-04-14 06:59 42.85175 24.61502 49219 ft 508 kts 119°
2026-04-14 06:59 42.81828 24.69981 49214 ft 508 kts 119°
2026-04-14 07:00 42.78473 24.78449 49221 ft 508 kts 119°
2026-04-14 07:00 42.75112 24.86912 49241 ft 508 kts 119°
2026-04-14 07:01 42.71743 24.95366 49245 ft 508 kts 119°
2026-04-14 07:01 42.68373 25.03801 49254 ft 508 kts 119°
2026-04-14 07:02 42.64994 25.12233 49247 ft 508 kts 119°
2026-04-14 07:02 42.61582 25.20716 49256 ft 515 kts 119°
2026-04-14 07:03 42.58154 25.29231 49255 ft 513 kts 119°
2026-04-14 07:03 42.54717 25.37726 49270 ft 514 kts 119°
2026-04-14 07:04 42.51285 25.46192 49272 ft 515 kts 119°
2026-04-14 07:04 42.47827 25.54696 49275 ft 515 kts 120°
2026-04-14 07:05 42.44364 25.63186 49265 ft 515 kts 120°
2026-04-14 07:05 42.40887 25.71685 49258 ft 517 kts 120°
2026-04-14 07:06 42.37400 25.80189 49275 ft 516 kts 120°
2026-04-14 07:06 42.33937 25.88599 49209 ft 505 kts 120°
2026-04-14 07:06 42.32232 25.92734 48495 ft 502 kts 120°
2026-04-14 07:07 42.30539 25.96838 47832 ft 498 kts 120°
2026-04-14 07:07 42.28858 26.00904 47178 ft 494 kts 120°
2026-04-14 07:07 42.27188 26.04934 46522 ft 489 kts 120°
2026-04-14 07:07 42.25533 26.08927 45878 ft 485 kts 120°
2026-04-14 07:08 42.23894 26.12876 45233 ft 480 kts 120°
2026-04-14 07:08 42.22288 26.16740 44589 ft 477 kts 120°
2026-04-14 07:08 42.20646 26.20681 43954 ft 475 kts 121°
2026-04-14 07:08 42.19048 26.24515 43336 ft 477 kts 121°
2026-04-14 07:09 42.17417 26.28423 42708 ft 479 kts 121°
2026-04-14 07:09 42.15776 26.32348 42077 ft 481 kts 121°
2026-04-14 07:09 42.14130 26.36281 41444 ft 483 kts 121°
2026-04-14 07:09 42.12478 26.40223 40808 ft 483 kts 122°
2026-04-14 07:10 42.10827 26.44158 40173 ft 483 kts 122°
2026-04-14 07:10 42.09174 26.48092 39535 ft 482 kts 122°
2026-04-14 07:10 42.07521 26.52019 38904 ft 482 kts 122°
2026-04-14 07:10 42.05869 26.55940 38210 ft 482 kts 123°
2026-04-14 07:11 42.04206 26.59882 37572 ft 487 kts 123°
2026-04-14 07:11 42.02519 26.63871 36929 ft 493 kts 123°
2026-04-14 07:11 42.00815 26.67899 36280 ft 498 kts 123°
2026-04-14 07:11 41.99094 26.71965 35617 ft 502 kts 124°
2026-04-14 07:12 41.97306 26.76018 34944 ft 506 kts 128°
2026-04-14 07:12 41.95157 26.79746 34286 ft 504 kts 137°
2026-04-14 07:12 41.92771 26.83190 33603 ft 502 kts 141°
2026-04-14 07:12 41.90346 26.86571 32943 ft 504 kts 140°
2026-04-14 07:13 41.87993 26.90081 32277 ft 508 kts 137°
2026-04-14 07:13 41.85671 26.93671 31603 ft 510 kts 137°
2026-04-14 07:13 41.83296 26.97196 30927 ft 511 kts 139°
2026-04-14 07:13 41.80861 27.00686 30241 ft 511 kts 139°
2026-04-14 07:14 41.78480 27.04178 29539 ft 503 kts 137°
2026-04-14 07:14 41.76164 27.07658 28887 ft 497 kts 137°
2026-04-14 07:14 41.73862 27.11070 28241 ft 490 kts 137°
2026-04-14 07:14 41.71562 27.14409 27603 ft 484 kts 137°
2026-04-14 07:15 41.69299 27.17708 26975 ft 479 kts 137°
2026-04-14 07:15 41.67070 27.20998 26351 ft 475 kts 136°
2026-04-14 07:15 41.64860 27.24253 25736 ft 469 kts 136°
2026-04-14 07:15 41.62669 27.27449 25115 ft 464 kts 136°
2026-04-14 07:16 41.60497 27.30609 24512 ft 459 kts 136°
2026-04-14 07:16 41.58380 27.33703 23924 ft 454 kts 136°
2026-04-14 07:16 41.56263 27.36800 23286 ft 449 kts 136°
2026-04-14 07:16 41.54163 27.39859 22699 ft 445 kts 136°
2026-04-14 07:17 41.52083 27.42883 22264 ft 431 kts 136°
2026-04-14 07:17 41.50138 27.45722 22243 ft 402 kts 136°
2026-04-14 07:17 41.48189 27.48541 21589 ft 430 kts 136°
2026-04-14 07:17 41.46145 27.51487 20833 ft 432 kts 136°
2026-04-14 07:18 41.44120 27.54437 20098 ft 430 kts 136°
2026-04-14 07:18 41.42112 27.57361 19379 ft 426 kts 136°
2026-04-14 07:18 41.40115 27.60246 18767 ft 420 kts 136°
2026-04-14 07:18 41.38141 27.63092 18195 ft 418 kts 136°
2026-04-14 07:19 41.36179 27.65929 17650 ft 415 kts 136°
2026-04-14 07:19 41.34228 27.68748 17105 ft 413 kts 136°
2026-04-14 07:19 41.32287 27.71544 16564 ft 410 kts 136°
2026-04-14 07:19 41.30359 27.74316 16024 ft 407 kts 136°
2026-04-14 07:20 41.28448 27.77069 15497 ft 404 kts 136°
2026-04-14 07:20 41.26549 27.79800 14967 ft 400 kts 136°
2026-04-14 07:20 41.24665 27.82506 14443 ft 397 kts 136°
2026-04-14 07:20 41.22792 27.85191 13905 ft 394 kts 136°
2026-04-14 07:21 41.20940 27.87846 13376 ft 390 kts 136°
2026-04-14 07:21 41.19103 27.90479 12861 ft 387 kts 136°
2026-04-14 07:21 41.17283 27.93083 12359 ft 383 kts 136°
2026-04-14 07:21 41.15480 27.95661 11860 ft 378 kts 136°
2026-04-14 07:22 41.14006 27.98499 11304 ft 367 kts 121°
2026-04-14 07:22 41.12889 28.01378 10822 ft 331 kts 118°
2026-04-14 07:22 41.11853 28.04055 10263 ft 330 kts 120°
2026-04-14 07:22 41.10746 28.06701 9535 ft 326 kts 121°
2026-04-14 07:23 41.09658 28.09288 9057 ft 314 kts 121°
2026-04-14 07:23 41.08635 28.11800 8668 ft 306 kts 120°
2026-04-14 07:23 41.07634 28.14263 8281 ft 301 kts 120°
2026-04-14 07:23 41.06653 28.16648 8110 ft 291 kts 120°
2026-04-14 07:24 41.05696 28.18966 7872 ft 276 kts 120°
2026-04-14 07:24 41.04811 28.21119 7731 ft 262 kts 120°
2026-04-14 07:24 41.03922 28.23275 7042 ft 268 kts 120°
2026-04-14 07:24 41.03042 28.25410 6314 ft 267 kts 120°
2026-04-14 07:25 41.02178 28.27509 6049 ft 255 kts 121°
2026-04-14 07:25 41.01333 28.29556 5739 ft 249 kts 120°
2026-04-14 07:25 41.00777 28.30903 5525 ft 245 kts 120°
2026-04-14 07:25 40.99715 28.33472 5102 ft 236 kts 120°
2026-04-14 07:26 40.98933 28.35365 4783 ft 232 kts 119°
2026-04-14 07:26 40.98167 28.37215 4469 ft 226 kts 118°
2026-04-14 07:26 40.97461 28.39053 4245 ft 220 kts 111°
2026-04-14 07:26 40.96958 28.40987 4274 ft 222 kts 109°
2026-04-14 07:27 40.96426 28.42925 4280 ft 223 kts 110°
2026-04-14 07:27 40.96155 28.44283 4222 ft 228 kts 97°
2026-04-14 07:27 40.96193 28.46344 4209 ft 226 kts 86°
2026-04-14 07:27 40.96328 28.48387 4217 ft 226 kts 85°
2026-04-14 07:28 40.96459 28.50452 4223 ft 224 kts 85°
2026-04-14 07:28 40.96587 28.52501 4213 ft 225 kts 86°
2026-04-14 07:28 40.96716 28.54567 4219 ft 226 kts 86°
2026-04-14 07:28 40.96845 28.56619 4218 ft 223 kts 85°
2026-04-14 07:29 40.96974 28.58685 4216 ft 224 kts 85°
2026-04-14 07:29 40.97102 28.60767 4221 ft 226 kts 86°
2026-04-14 07:29 40.97231 28.62830 4206 ft 225 kts 86°
2026-04-14 07:29 40.97363 28.64878 4206 ft 224 kts 85°
2026-04-14 07:30 40.97495 28.66943 4208 ft 226 kts 85°
2026-04-14 07:30 40.97772 28.68994 4140 ft 229 kts 66°
2026-04-14 07:30 40.98875 28.70556 4195 ft 243 kts 39°
2026-04-14 07:30 41.00175 28.71765 5169 ft 222 kts 34°
2026-04-14 07:31 41.01477 28.72980 5704 ft 243 kts 34°
2026-04-14 07:31 41.02940 28.74347 5025 ft 265 kts 34°
2026-04-14 07:31 41.04465 28.75608 4412 ft 255 kts 31°
2026-04-14 07:31 41.06046 28.76569 4105 ft 247 kts 13°
2026-04-14 07:32 41.07749 28.76251 4077 ft 244 kts 335°
2026-04-14 07:32 41.09098 28.75130 3645 ft 217 kts 359°
2026-04-14 07:32 41.10548 28.75338 3378 ft 204 kts
2026-04-14 07:32 41.11952 28.75546 3458 ft 207 kts 11°
2026-04-14 07:33 41.13499 28.75829 2918 ft 250 kts 11°
2026-04-14 07:33 41.15116 28.76009 2085 ft 218 kts
2026-04-14 07:33 41.16538 28.75863 1814 ft 196 kts
2026-04-14 07:34 41.20305 28.75779 1534 ft 158 kts
2026-04-14 07:34 41.21316 28.75764 1329 ft 135 kts
2026-04-14 07:34 41.22239 28.75746 1150 ft 131 kts
2026-04-14 07:35 41.23145 28.75729 988 ft 130 kts
2026-04-14 07:35 41.24034 28.75701 783 ft 125 kts
2026-04-14 07:35 41.24883 28.75669 664 ft 125 kts
2026-04-14 07:35 41.25757 28.75667 527 ft 126 kts
2026-04-14 07:36 41.26630 28.75656 350 ft 122 kts
2026-04-14 07:36 41.27389 28.75650 329 ft 94 kts 359°
2026-04-14 07:36 41.27898 28.75635 331 ft 45 kts 351°
2026-04-14 07:36 41.28131 28.75505 331 ft 25 kts 326°
2026-04-14 07:37 41.28140 28.75361 331 ft 18 kts 214°
2026-04-14 07:37 41.28024 28.75354 331 ft 17 kts 175°
2026-04-14 07:37 41.27906 28.75352 329 ft 18 kts 180°
2026-04-14 07:37 41.27784 28.75358 329 ft 17 kts 179°
2026-04-14 07:38 41.27665 28.75360 330 ft 17 kts 177°
2026-04-14 07:38 41.27551 28.75362 327 ft 16 kts 180°
2026-04-14 07:38 41.27442 28.75362 331 ft 15 kts 180°
2026-04-14 07:38 41.27327 28.75362 329 ft 18 kts 179°
2026-04-14 07:39 41.27206 28.75365 327 ft 17 kts 179°
2026-04-14 07:39 41.27089 28.75369 327 ft 16 kts 177°
2026-04-14 07:39 41.26978 28.75377 327 ft 16 kts 177°
2026-04-14 07:39 41.26895 28.75319 331 ft 14 kts 253°
2026-04-14 07:40 41.26824 28.75265 329 ft 13 kts 178°
2026-04-14 07:40 41.26732 28.75266 331 ft 15 kts 180°
2026-04-14 07:40 41.26629 28.75269 330 ft 14 kts 179°
2026-04-14 07:40 41.26526 28.75272 331 ft 15 kts 179°
2026-04-14 07:41 41.26425 28.75274 329 ft 14 kts 179°
2026-04-14 07:41 41.26328 28.75276 330 ft 14 kts 179°
2026-04-14 07:41 41.26219 28.75278 329 ft 16 kts 179°
2026-04-14 07:41 41.26109 28.75281 328 ft 15 kts 179°
2026-04-14 07:42 41.26006 28.75284 331 ft 15 kts 179°
2026-04-14 07:42 41.25905 28.75287 328 ft 15 kts 179°
2026-04-14 07:42 41.25783 28.75289 331 ft 18 kts 179°
2026-04-14 07:42 41.25679 28.75289 329 ft 14 kts 191°
2026-04-14 07:43 41.25648 28.75191 331 ft 12 kts 266°
2026-04-14 07:43 41.25647 28.75079 331 ft 12 kts 269°
2026-04-14 07:43 41.25643 28.74976 330 ft 8 kts 246°
2026-04-14 07:43 41.25593 28.74962 329 ft 10 kts 179°
2026-04-14 07:44 41.25549 28.74961 330 ft 2 kts 199°
2026-04-14 07:44 41.25545 28.74935 328 ft 4 kts 265°
2026-04-14 07:44 41.25544 28.74902 330 ft 2 kts 269°
2026-04-14 07:44 41.25544 28.74894 330 ft 0 kts 269°